Weather Roundup
Issued by NWS Springfield, MO

Home | Current Version | Previous Version | Text Only | Print | Product List | Glossary On
Versions: 1 2 3 4 5 6 7 8 9 10 11 12 13 14 15 16 17 18 19 20 21 22 23 24 25 26 27 28 29 30 31 32 33 34 35 36 37 38 39 40 41 42 43 44 45 46 47 48 49 50
000
NZUS99 KSGF 221859
HRRSGF

HOURLY WEATHER
NATIONAL WEATHER SERVICE SPRINGFIELD MO
100 PM CST MON DEC 22 2014

......SGF CWA......

CITY           SKY/WX    TMP DP  RH WIND       PRES   REMARKS
SPRINGFIELD    CLOUDY    47  45  93 S12       29.51F FOG
JOPLIN         LGT RAIN  49  48  97 SW10      29.51F FOG
WEST PLAINS    CLOUDY    47  45  93 S12       29.56F FOG
ROLLA          RAIN      45  43  93 SE8       29.54F FOG
OSAGE BEACH    CLOUDY    48  45  87 S8        29.53F
BRANSON        CLOUDY    48  46  93 S10       29.55F

......SURROUNDING SGF CWA......

CITY           SKY/WX    TMP DP  RH WIND       PRES   REMARKS
CHANUTE        LGT RAIN  48  47  96 SW10      29.50F FOG
PARSONS        LGT RAIN  49  48  97 SW8       29.51F FOG
COFFEYVILLE    CLOUDY    50  48  93 SW9       29.52S
EMPORIA        PTSUNNY   47  42  83 W18G24    29.48F
SILOAM SPRINGS CLOUDY    48  43  81 S10       29.54F
HARRISON AR    CLOUDY    47  47 100 SE10      29.54F
NEAR YELLVILLE CLOUDY    48  45  87 SE3       29.56F

......KANSAS AND MISSOURI......

CITY           SKY/WX    TMP DP  RH WIND       PRES   REMARKS
KANSAS CTY INT LGT RAIN  44  44 100 S9        29.47F VSB 1
DOWNTOWN KC    LGT RAIN  45  43  93 S7        29.48F FOG
COLUMBIA       LGT RAIN  45  44  97 S9        29.54F FOG
SEDALIA        LGT RAIN  46  44  93 SE7       29.52F FOG
ST JOSEPH      LGT RAIN  44  43  96 S8        29.47F FOG
ST LOUIS       LGT RAIN  48  44  86 SE12      29.62F
SPIRIT OF STL  LGT RAIN  47  45  93 SE5       29.60F
KIRKSVILLE     LGT RAIN  41  41 100 SE10      29.53F FOG
WICHITA        PTSUNNY   51  40  65 N17       29.54F
TOPEKA         CLOUDY    48  45  89 SW10      29.47F
OLATHE         CLOUDY    44  44 100 S8        29.47F FOG

......TENNESSEE......

CITY           SKY/WX    TMP DP  RH WIND       PRES   REMARKS
MEMPHIS        CLOUDY    59  52  77 S16       29.67F
NASHVILLE      CLOUDY    54  47  77 S14       29.80F

......ARKANSAS.......

CITY           SKY/WX    TMP DP  RH WIND       PRES   REMARKS
FAYETTEVILLE   LGT RAIN  48  48 100 S9        29.53F
FT SMITH       CLOUDY    53  50  89 SE3       29.55F
LITTLE ROCK    CLOUDY    55  50  83 SE7       29.61F

......OKLAHOMA.......

CITY           SKY/WX    TMP DP  RH WIND       PRES   REMARKS
TULSA          CLOUDY    53  49  86 W10       29.53F
PONCA CITY     PTSUNNY   53  45  74 NW12      29.55S
MCALESTER      CLOUDY    55  46  71 W12       29.58R
OKLAHOMA CITY  PTSUNNY   55  40  56 NW21G28   29.58R

......IOWA............

CITY           SKY/WX    TMP DP  RH WIND       PRES   REMARKS
DES MOINES     LGT RAIN  41  38  89 SE7       29.51F FOG
QUAD CITIES    LGT RAIN  36  34  92 E13       29.62F FOG     WCI  27

......ILLINOIS........

CITY           SKY/WX    TMP DP  RH WIND       PRES   REMARKS
QUINCY         CLOUDY    42  40  92 S9        29.57F FOG
CHICAGO        LGT RAIN  35  32  88 E12       29.75F FOG     WCI  27



USA.gov is the U.S. government's official web portal to all federal, state and local government web resources and services.